Overview Statistics Trail Chart Weather Telemetry Raw packets
 

This is the latest recevied weather packets stored in our database for station/object K4KMJ. If no packets are shown the sender has not sent any weather packets the latest 10 day(s).

<< 54 55 56 57 58 59 60 >>
Time Temp. Humidity Pressure Rain* Wind** Luminosity Snow
1788299834 29.44° C 88% 1017.4 hPa 0 mm - 86 W/m² -
1788299528 28.89° C 88% 1017.3 hPa 0 mm - 180 W/m² -
1788299226 29.44° C 87% 1017.3 hPa 0 mm - 83 W/m² -
1788298921 29.44° C 86% 1017.2 hPa 0 mm - 150 W/m² -
1788298615 30° C 85% 1017.3 hPa 0 mm - 130 W/m² -
1788298310 30° C 85% 1017.1 hPa 0 mm - 262 W/m² -
1788298009 30° C 84% 1017.2 hPa 0 mm - 151 W/m² -
1788297705 30.56° C 84% 1017 hPa 0 mm - 154 W/m² -
1788297400 30.56° C 84% 1017.3 hPa 0 mm - 277 W/m² -
1788297097 30° C 84% 1017.2 hPa 0 mm - 424 W/m² -
1788296792 30° C 85% 1017.4 hPa 0 mm - 450 W/m² -
1788296488 30° C 85% 1017.4 hPa 0 mm - 477 W/m² -
1788296183 29.44° C 85% 1017.3 hPa 0 mm - 409 W/m² -
1788295878 29.44° C 86% 1017.5 hPa 0 mm - 312 W/m² -
1788295574 29.44° C 86% 1017.6 hPa 0 mm - 234 W/m² -
1788295274 29.44° C 86% 1017.6 hPa 0 mm - 218 W/m² -
1788294974 29.44° C 86% 1017.4 hPa 0 mm - 198 W/m² -
1788294669 29.44° C 85% 1017.1 hPa 0 mm - 185 W/m² -
1788294368 29.44° C 85% 1017.2 hPa 0 mm - 183 W/m² -
1788294065 29.44° C 85% 1017.3 hPa 0 mm - 215 W/m² -
1788293760 30° C 85% 1017.3 hPa 0 mm - 194 W/m² -
1788293459 30° C 86% 1017.8 hPa 0 mm - 258 W/m² -
1788293153 30° C 85% 1017.6 hPa 0 mm - 390 W/m² -
1788292848 30° C 85% 1017.7 hPa 0 mm - 386 W/m² -
1788292545 30° C 85% 1017.7 hPa 0 mm - 559 W/m² -

* Rain latest hour (hover to see other rain measurements)
** Current wind speed in m/s (hover to see current wind gust speed)